AAL650 KCLT-KMIA

Flight info

Callsign AAL650
Flight time 1h 40m
Altitude 35000
Route ICONS5 NOOKS WURFL Q83 JEVED Q97 DEBRL CSTAL3
Aircraft B738/M-SDE2E3FGHIRWXY/LB1

Departure

Time 2026-05-03 20:54
Airport Charlotte Douglas International Airport (KCLT)

Arrival

Time 2026-05-03 22:34
Airport Miami International Airport (KMIA)
Time Latitude Longitude Altitude Speed Heading
2026-05-03 20:37 35.22130 -80.93940 726 ft 0 kts 195°
2026-05-03 20:44 35.22145 -80.93935 726 ft 3 kts 195°
2026-05-03 20:44 35.22167 -80.93929 726 ft 3 kts 179°
2026-05-03 20:44 35.22187 -80.93939 726 ft 3 kts 118°
2026-05-03 20:44 35.22189 -80.93944 726 ft 0 kts 100°
2026-05-03 20:47 35.22188 -80.93889 730 ft 17 kts 89°
2026-05-03 20:48 35.22159 -80.93726 728 ft 22 kts 155°
2026-05-03 20:48 35.22018 -80.93705 725 ft 16 kts 175°
2026-05-03 20:48 35.21931 -80.93700 726 ft 11 kts 177°
2026-05-03 20:48 35.21821 -80.93693 726 ft 20 kts 176°
2026-05-03 20:49 35.21675 -80.93679 725 ft 21 kts 175°
2026-05-03 20:49 35.21533 -80.93667 723 ft 20 kts 176°
2026-05-03 20:49 35.21390 -80.93656 722 ft 22 kts 176°
2026-05-03 20:49 35.21234 -80.93644 721 ft 22 kts 175°
2026-05-03 20:50 35.21077 -80.93629 719 ft 24 kts 176°
2026-05-03 20:50 35.20895 -80.93615 720 ft 28 kts 175°
2026-05-03 20:50 35.20697 -80.93597 715 ft 28 kts 176°
2026-05-03 20:50 35.20508 -80.93585 713 ft 26 kts 174°
2026-05-03 20:51 35.20332 -80.93566 715 ft 25 kts 175°
2026-05-03 20:51 35.20180 -80.93555 711 ft 19 kts 177°
2026-05-03 20:51 35.20107 -80.93499 706 ft 13 kts 84°
2026-05-03 20:51 35.20146 -80.93417 701 ft 11 kts
2026-05-03 20:52 35.20171 -80.93420 713 ft 0 kts 355°
2026-05-03 20:53 35.20212 -80.93424 711 ft 30 kts 355°
2026-05-03 20:53 35.20699 -80.93468 717 ft 109 kts 356°
2026-05-03 20:53 35.21690 -80.93544 735 ft 173 kts 354°
2026-05-03 20:53 35.22992 -80.93603 1188 ft 196 kts 354°
2026-05-03 20:54 35.24435 -80.93728 1837 ft 215 kts 354°
2026-05-03 20:54 35.27593 -80.92918 2661 ft 246 kts 14°
2026-05-03 20:54 35.29239 -80.92307 3369 ft 247 kts 14°
2026-05-03 20:55 35.30797 -80.91494 4091 ft 250 kts 37°
2026-05-03 20:55 35.31901 -80.89845 4754 ft 256 kts 66°
2026-05-03 20:55 35.32211 -80.87721 5442 ft 256 kts 95°
2026-05-03 20:55 35.31958 -80.85549 6074 ft 258 kts 101°
2026-05-03 20:56 35.31619 -80.83340 6587 ft 274 kts 101°
2026-05-03 20:56 35.31243 -80.80992 7118 ft 287 kts 102°
2026-05-03 20:56 35.30840 -80.78564 7814 ft 293 kts 102°
2026-05-03 20:56 35.30417 -80.76102 8519 ft 299 kts 102°
2026-05-03 20:57 35.29973 -80.73584 9220 ft 305 kts 102°
2026-05-03 20:57 35.29507 -80.71019 9928 ft 312 kts 102°
2026-05-03 20:57 35.28930 -80.68427 10463 ft 323 kts 115°
2026-05-03 20:57 35.27535 -80.66197 10640 ft 342 kts 145°
2026-05-03 20:58 35.25380 -80.64960 10823 ft 355 kts 173°
2026-05-03 20:58 35.22884 -80.64994 11006 ft 366 kts 195°
2026-05-03 20:58 35.20383 -80.65834 11254 ft 378 kts 204°
2026-05-03 20:58 35.17936 -80.67080 11749 ft 383 kts 208°
2026-05-03 20:59 35.15515 -80.68469 12413 ft 385 kts 209°
2026-05-03 20:59 35.13088 -80.69884 13073 ft 387 kts 209°
2026-05-03 20:59 35.10642 -80.71285 13728 ft 390 kts 208°
2026-05-03 20:59 35.08189 -80.72657 14287 ft 394 kts 208°
2026-05-03 21:00 35.05669 -80.74040 14861 ft 397 kts 208°
2026-05-03 21:00 35.03992 -80.74950 15245 ft 398 kts 208°
2026-05-03 21:00 35.00573 -80.76787 15990 ft 402 kts 208°
2026-05-03 21:00 34.98001 -80.78163 16548 ft 405 kts 208°
2026-05-03 21:01 34.95411 -80.79545 17091 ft 407 kts 208°
2026-05-03 21:01 34.92830 -80.80922 17606 ft 410 kts 208°
2026-05-03 21:01 34.90206 -80.82320 18134 ft 413 kts 208°
2026-05-03 21:01 34.87569 -80.83726 18626 ft 415 kts 208°
2026-05-03 21:02 34.84915 -80.85138 19107 ft 417 kts 208°
2026-05-03 21:02 34.82252 -80.86555 19572 ft 419 kts 208°
2026-05-03 21:02 34.79574 -80.87979 20030 ft 421 kts 208°
2026-05-03 21:02 34.76877 -80.89413 20478 ft 423 kts 209°
2026-05-03 21:03 34.74175 -80.90849 20911 ft 425 kts 209°
2026-05-03 21:03 34.71491 -80.92273 21316 ft 427 kts 208°
2026-05-03 21:03 34.68756 -80.93724 21726 ft 430 kts 208°
2026-05-03 21:03 34.66010 -80.95179 22135 ft 432 kts 208°
2026-05-03 21:04 34.63211 -80.96569 22518 ft 437 kts 203°
2026-05-03 21:04 34.60237 -80.97490 22906 ft 445 kts 194°
2026-05-03 21:04 34.57119 -80.97874 23112 ft 453 kts 189°
2026-05-03 21:04 34.53957 -80.98139 23108 ft 455 kts 189°
2026-05-03 21:05 34.50801 -80.98389 23107 ft 452 kts 189°
2026-05-03 21:05 34.47655 -80.98646 23184 ft 455 kts 189°
2026-05-03 21:05 34.44493 -80.98921 23511 ft 457 kts 189°
2026-05-03 21:05 34.41319 -80.99207 23932 ft 456 kts 189°
2026-05-03 21:06 34.38154 -80.99499 24309 ft 455 kts 189°
2026-05-03 21:06 34.34992 -80.99793 24667 ft 456 kts 190°
2026-05-03 21:06 34.31820 -81.00092 24951 ft 458 kts 190°
2026-05-03 21:06 34.28679 -81.00388 25223 ft 460 kts 190°
2026-05-03 21:07 34.25474 -81.00688 25527 ft 461 kts 190°
2026-05-03 21:07 34.22258 -81.00989 25837 ft 462 kts 190°
2026-05-03 21:07 34.19076 -81.01285 26122 ft 463 kts 190°
2026-05-03 21:07 34.15849 -81.01585 26394 ft 465 kts 190°
2026-05-03 21:08 34.12619 -81.01885 26674 ft 465 kts 191°
2026-05-03 21:08 34.09395 -81.02183 27026 ft 464 kts 191°
2026-05-03 21:08 34.06175 -81.02482 27343 ft 464 kts 191°
2026-05-03 21:08 34.02957 -81.02780 27694 ft 463 kts 191°
2026-05-03 21:09 33.99752 -81.03077 28095 ft 461 kts 191°
2026-05-03 21:09 33.96553 -81.03304 28502 ft 462 kts 189°
2026-05-03 21:09 33.93337 -81.03346 28894 ft 462 kts 187°
2026-05-03 21:09 33.90116 -81.03298 29263 ft 462 kts 187°
2026-05-03 21:10 33.86900 -81.03220 29621 ft 460 kts 187°
2026-05-03 21:10 33.83701 -81.03143 30042 ft 458 kts 187°
2026-05-03 21:10 33.80514 -81.03079 30391 ft 456 kts 188°
2026-05-03 21:10 33.77343 -81.03029 30715 ft 454 kts 188°
2026-05-03 21:11 33.74228 -81.02991 31018 ft 453 kts 188°
2026-05-03 21:11 33.71080 -81.02959 31345 ft 451 kts 188°
2026-05-03 21:11 33.67940 -81.02929 31691 ft 449 kts 189°
2026-05-03 21:11 33.64825 -81.02901 32024 ft 447 kts 189°
2026-05-03 21:12 33.61724 -81.02874 32302 ft 444 kts 189°
2026-05-03 21:12 33.58648 -81.02844 32766 ft 439 kts 190°
2026-05-03 21:12 33.55598 -81.02814 33169 ft 436 kts 190°
2026-05-03 21:12 33.52570 -81.02787 33434 ft 435 kts 190°
2026-05-03 21:13 33.49585 -81.02763 33657 ft 435 kts 190°
2026-05-03 21:13 33.46559 -81.02737 33959 ft 434 kts 191°
2026-05-03 21:13 33.43537 -81.02711 34109 ft 435 kts 191°
2026-05-03 21:13 33.40504 -81.02686 34108 ft 435 kts 191°
2026-05-03 21:14 33.34466 -81.02629 34083 ft 431 kts 191°
2026-05-03 21:14 33.28495 -81.02569 34103 ft 426 kts 191°
2026-05-03 21:15 33.22636 -81.02516 34117 ft 423 kts 191°
2026-05-03 21:15 33.16761 -81.02465 34128 ft 422 kts 191°
2026-05-03 21:16 33.10828 -81.02420 34134 ft 430 kts 191°
2026-05-03 21:16 33.04813 -81.02368 34127 ft 432 kts 191°
2026-05-03 21:17 32.99803 -81.02319 34112 ft 433 kts 191°
2026-05-03 21:17 32.92750 -81.02251 34107 ft 433 kts 191°
2026-05-03 21:18 32.86754 -81.02195 34115 ft 432 kts 191°
2026-05-03 21:18 32.80737 -81.02140 34102 ft 431 kts 190°
2026-05-03 21:19 32.74750 -81.02085 34116 ft 430 kts 190°
2026-05-03 21:19 32.68769 -81.02032 34126 ft 429 kts 190°
2026-05-03 21:20 32.62801 -81.01978 34123 ft 429 kts 190°
2026-05-03 21:20 32.56840 -81.01925 34129 ft 428 kts 190°
2026-05-03 21:21 32.50895 -81.01892 34124 ft 426 kts 191°
2026-05-03 21:21 32.44977 -81.02006 34137 ft 424 kts 192°
2026-05-03 21:22 32.39107 -81.02135 34127 ft 424 kts 191°
2026-05-03 21:22 32.33186 -81.02245 34124 ft 424 kts 191°
2026-05-03 21:23 32.27275 -81.02350 34112 ft 424 kts 191°
2026-05-03 21:23 32.21380 -81.02453 34111 ft 423 kts 191°
2026-05-03 21:24 32.15531 -81.02556 34115 ft 423 kts 191°
2026-05-03 21:24 32.09637 -81.02659 34088 ft 423 kts 191°
2026-05-03 21:25 32.03745 -81.02763 34087 ft 423 kts 191°
2026-05-03 21:25 31.98851 -81.02850 34081 ft 421 kts 191°
2026-05-03 21:26 31.92994 -81.03004 34087 ft 421 kts 192°
2026-05-03 21:26 31.87141 -81.03175 34095 ft 421 kts 192°
2026-05-03 21:27 31.81283 -81.03340 34104 ft 421 kts 191°
2026-05-03 21:27 31.75436 -81.03501 34079 ft 420 kts 191°
2026-05-03 21:28 31.69585 -81.03660 34113 ft 419 kts 191°
2026-05-03 21:28 31.63873 -81.03812 34125 ft 409 kts 191°
2026-05-03 21:29 31.58208 -81.03971 34131 ft 406 kts 192°
2026-05-03 21:29 31.52587 -81.04300 34139 ft 403 kts 193°
2026-05-03 21:30 31.46995 -81.04691 34099 ft 402 kts 193°
2026-05-03 21:30 31.41407 -81.05064 34131 ft 402 kts 193°
2026-05-03 21:31 31.35845 -81.05423 34141 ft 404 kts 193°
2026-05-03 21:31 31.30223 -81.05782 34136 ft 406 kts 193°
2026-05-03 21:32 31.24571 -81.06141 34135 ft 408 kts 192°
2026-05-03 21:32 31.18854 -81.06310 34101 ft 412 kts 191°
2026-05-03 21:33 31.13110 -81.06389 34124 ft 413 kts 191°
2026-05-03 21:33 31.07342 -81.06485 34134 ft 414 kts 191°
2026-05-03 21:34 31.01561 -81.06599 34131 ft 415 kts 191°
2026-05-03 21:34 30.95770 -81.06718 34132 ft 416 kts 191°
2026-05-03 21:35 30.90017 -81.06837 34130 ft 415 kts 191°
2026-05-03 21:35 30.84226 -81.06956 34125 ft 415 kts 191°
2026-05-03 21:36 30.78473 -81.07075 34133 ft 415 kts 191°
2026-05-03 21:36 30.72700 -81.07194 34133 ft 414 kts 191°
2026-05-03 21:37 30.66918 -81.07313 34131 ft 414 kts 191°
2026-05-03 21:37 30.61196 -81.07443 34125 ft 412 kts 192°
2026-05-03 21:38 30.55492 -81.07770 34130 ft 410 kts 194°
2026-05-03 21:38 30.49790 -81.08152 34131 ft 410 kts 193°
2026-05-03 21:39 30.44081 -81.08516 34131 ft 411 kts 193°
2026-05-03 21:39 30.38362 -81.08865 34127 ft 412 kts 193°
2026-05-03 21:40 30.32632 -81.09209 34129 ft 412 kts 193°
2026-05-03 21:40 30.26894 -81.09552 34124 ft 412 kts 193°
2026-05-03 21:41 30.21158 -81.09895 34123 ft 412 kts 193°
2026-05-03 21:41 30.15460 -81.10236 34125 ft 413 kts 193°
2026-05-03 21:42 30.09719 -81.10579 34101 ft 413 kts 193°
2026-05-03 21:42 30.03979 -81.10920 34115 ft 412 kts 194°
2026-05-03 21:43 29.98249 -81.11262 34131 ft 412 kts 194°
2026-05-03 21:43 29.92552 -81.11602 34128 ft 412 kts 194°
2026-05-03 21:44 29.86816 -81.11943 34126 ft 412 kts 194°
2026-05-03 21:44 29.81075 -81.12281 34093 ft 413 kts 193°
2026-05-03 21:45 29.75290 -81.12346 34116 ft 416 kts 191°
2026-05-03 21:45 29.69535 -81.12319 34125 ft 416 kts 191°
2026-05-03 21:46 29.63752 -81.12334 34120 ft 415 kts 192°
2026-05-03 21:46 29.57975 -81.12367 34122 ft 415 kts 192°
2026-05-03 21:47 29.52210 -81.12522 34071 ft 412 kts 194°
2026-05-03 21:47 29.46527 -81.12765 34108 ft 411 kts 194°
2026-05-03 21:48 29.40810 -81.12994 34120 ft 410 kts 194°
2026-05-03 21:48 29.35102 -81.13208 34110 ft 410 kts 193°
2026-05-03 21:49 29.29366 -81.13242 34096 ft 425 kts 183°
2026-05-03 21:49 29.26435 -81.12354 34134 ft 441 kts 174°
2026-05-03 21:49 29.23516 -81.11229 34076 ft 443 kts 174°
2026-05-03 21:50 29.17689 -81.08952 34100 ft 442 kts 174°
2026-05-03 21:50 29.11904 -81.06743 34109 ft 441 kts 175°
2026-05-03 21:51 29.06079 -81.04558 34102 ft 440 kts 175°
2026-05-03 21:51 29.00251 -81.02383 34094 ft 440 kts 175°
2026-05-03 21:52 28.94420 -81.00208 34044 ft 441 kts 175°
2026-05-03 21:52 28.88598 -80.98036 34084 ft 440 kts 175°
2026-05-03 21:53 28.82807 -80.95879 34099 ft 440 kts 175°
2026-05-03 21:53 28.76980 -80.93711 34096 ft 440 kts 175°
2026-05-03 21:54 28.71182 -80.91180 34077 ft 450 kts 170°
2026-05-03 21:54 28.65444 -80.88350 34090 ft 450 kts 169°
2026-05-03 21:55 28.59725 -80.85562 34088 ft 449 kts 170°
2026-05-03 21:55 28.53953 -80.82807 34096 ft 450 kts 170°
2026-05-03 21:56 28.48151 -80.80053 34095 ft 451 kts 170°
2026-05-03 21:56 28.42353 -80.77301 34093 ft 452 kts 170°
2026-05-03 21:57 28.36549 -80.74549 34087 ft 452 kts 170°
2026-05-03 21:57 28.30761 -80.71808 34077 ft 452 kts 170°
2026-05-03 21:58 28.24956 -80.69062 34069 ft 452 kts 170°
2026-05-03 21:58 28.19124 -80.66448 34070 ft 443 kts 175°
2026-05-03 21:59 28.13227 -80.64668 34076 ft 436 kts 179°
2026-05-03 21:59 28.07367 -80.63060 34071 ft 436 kts 179°
2026-05-03 22:00 28.01471 -80.61357 34049 ft 436 kts 178°
2026-05-03 22:00 27.95599 -80.59606 34062 ft 436 kts 178°
2026-05-03 22:01 27.89728 -80.57846 34070 ft 436 kts 178°
2026-05-03 22:01 27.83861 -80.56091 34068 ft 436 kts 178°
2026-05-03 22:02 27.78076 -80.54356 34057 ft 425 kts 178°
2026-05-03 22:02 27.75239 -80.53514 33675 ft 431 kts 178°
2026-05-03 22:02 27.72295 -80.52649 33281 ft 444 kts 177°
2026-05-03 22:03 27.69267 -80.51753 32845 ft 453 kts 176°
2026-05-03 22:03 27.66223 -80.50841 32332 ft 450 kts 175°
2026-05-03 22:03 27.63227 -80.49817 31833 ft 449 kts 172°
2026-05-03 22:03 27.60291 -80.48664 31370 ft 445 kts 170°
2026-05-03 22:04 27.57391 -80.47470 30880 ft 441 kts 169°
2026-05-03 22:04 27.54521 -80.46284 30407 ft 438 kts 169°
2026-05-03 22:04 27.51665 -80.45118 29908 ft 434 kts 169°
2026-05-03 22:04 27.48828 -80.43976 29367 ft 430 kts 170°
2026-05-03 22:05 27.46060 -80.42872 28923 ft 425 kts 170°
2026-05-03 22:05 27.43289 -80.41773 28449 ft 420 kts 170°
2026-05-03 22:05 27.40538 -80.40687 27985 ft 416 kts 170°
2026-05-03 22:05 27.37816 -80.39613 27532 ft 412 kts 170°
2026-05-03 22:06 27.35117 -80.38549 27153 ft 408 kts 170°
2026-05-03 22:06 27.32451 -80.37498 26766 ft 404 kts 170°
2026-05-03 22:06 27.29802 -80.36454 26376 ft 402 kts 170°
2026-05-03 22:06 27.27155 -80.35414 25984 ft 404 kts 170°
2026-05-03 22:07 27.24490 -80.34366 25617 ft 406 kts 170°
2026-05-03 22:07 27.21822 -80.33316 25245 ft 406 kts 170°
2026-05-03 22:07 27.19164 -80.32271 24881 ft 404 kts 170°
2026-05-03 22:07 27.16545 -80.31251 24519 ft 402 kts 170°
2026-05-03 22:08 27.13907 -80.30227 24160 ft 400 kts 170°
2026-05-03 22:08 27.11287 -80.29212 23795 ft 398 kts 169°
2026-05-03 22:08 27.08664 -80.28196 23393 ft 397 kts 169°
2026-05-03 22:08 27.06065 -80.27188 22996 ft 394 kts 169°
2026-05-03 22:09 27.03477 -80.26185 22621 ft 392 kts 169°
2026-05-03 22:09 27.00902 -80.25187 22231 ft 391 kts 169°
2026-05-03 22:09 26.98337 -80.24193 21848 ft 389 kts 169°
2026-05-03 22:10 26.93259 -80.22228 21105 ft 385 kts 169°
2026-05-03 22:10 26.90728 -80.21248 20741 ft 384 kts 169°
2026-05-03 22:10 26.88206 -80.20273 20379 ft 382 kts 168°
2026-05-03 22:10 26.85693 -80.19304 20036 ft 381 kts 169°
2026-05-03 22:11 26.83195 -80.18368 19712 ft 378 kts 169°
2026-05-03 22:11 26.81535 -80.17755 19440 ft 378 kts 169°
2026-05-03 22:11 26.79036 -80.16836 19075 ft 378 kts 169°
2026-05-03 22:11 26.76536 -80.15912 18711 ft 377 kts 168°
2026-05-03 22:12 26.74049 -80.14992 18378 ft 376 kts 168°
2026-05-03 22:12 26.71566 -80.14073 18000 ft 374 kts 168°
2026-05-03 22:12 26.69076 -80.13271 17613 ft 370 kts 172°
2026-05-03 22:12 26.66572 -80.12618 17237 ft 368 kts 173°
2026-05-03 22:13 26.64081 -80.11982 16855 ft 366 kts 173°
2026-05-03 22:13 26.61637 -80.11338 16492 ft 364 kts 172°
2026-05-03 22:13 26.59175 -80.10681 16138 ft 363 kts 173°
2026-05-03 22:13 26.56715 -80.10058 15765 ft 362 kts 173°
2026-05-03 22:14 26.54273 -80.09453 15491 ft 355 kts 173°
2026-05-03 22:14 26.51884 -80.08861 15236 ft 348 kts 173°
2026-05-03 22:14 26.49542 -80.08279 14993 ft 341 kts 173°
2026-05-03 22:14 26.47244 -80.07705 14738 ft 335 kts 173°
2026-05-03 22:15 26.44981 -80.07309 14478 ft 322 kts 188°
2026-05-03 22:15 26.42773 -80.07303 14274 ft 320 kts 174°
2026-05-03 22:15 26.40692 -80.06374 14043 ft 325 kts 153°
2026-05-03 22:15 26.38718 -80.05325 13792 ft 311 kts 173°
2026-05-03 22:16 26.36610 -80.04989 13574 ft 304 kts 177°
2026-05-03 22:16 26.34517 -80.04615 13310 ft 304 kts 174°
2026-05-03 22:16 26.32446 -80.04129 13055 ft 304 kts 172°
2026-05-03 22:16 26.30385 -80.03575 12793 ft 304 kts 171°
2026-05-03 22:17 26.28336 -80.02999 12554 ft 303 kts 171°
2026-05-03 22:17 26.26286 -80.02426 12306 ft 302 kts 173°
2026-05-03 22:17 26.24229 -80.02385 12038 ft 293 kts 195°
2026-05-03 22:17 26.22272 -80.02836 11814 ft 290 kts 197°
2026-05-03 22:18 26.20300 -80.03308 11560 ft 289 kts 196°
2026-05-03 22:18 26.18332 -80.03775 11313 ft 289 kts 196°
2026-05-03 22:18 26.16365 -80.04235 11099 ft 287 kts 195°
2026-05-03 22:18 26.14409 -80.04688 11038 ft 288 kts 195°
2026-05-03 22:19 26.12445 -80.05140 11008 ft 287 kts 195°
2026-05-03 22:19 26.10492 -80.05586 11003 ft 286 kts 195°
2026-05-03 22:19 26.08541 -80.06031 10998 ft 286 kts 195°
2026-05-03 22:19 26.06589 -80.06481 11003 ft 287 kts 196°
2026-05-03 22:20 26.04642 -80.06974 11001 ft 287 kts 197°
2026-05-03 22:20 26.02702 -80.07485 11000 ft 286 kts 197°
2026-05-03 22:20 26.00785 -80.07989 10989 ft 279 kts 197°
2026-05-03 22:20 25.98914 -80.08478 10983 ft 274 kts 197°
2026-05-03 22:21 25.97057 -80.08963 10888 ft 276 kts 197°
2026-05-03 22:21 25.95208 -80.09444 10724 ft 276 kts 197°
2026-05-03 22:21 25.93335 -80.09931 10561 ft 276 kts 197°
2026-05-03 22:21 25.91501 -80.10543 10372 ft 273 kts 207°
2026-05-03 22:22 25.89808 -80.11476 10206 ft 270 kts 211°
2026-05-03 22:22 25.88164 -80.12468 10017 ft 267 kts 212°
2026-05-03 22:22 25.86536 -80.13452 9823 ft 266 kts 211°
2026-05-03 22:22 25.84911 -80.14421 9624 ft 264 kts 211°
2026-05-03 22:23 25.83306 -80.15367 9460 ft 258 kts 211°
2026-05-03 22:23 25.81727 -80.16290 9274 ft 256 kts 211°
2026-05-03 22:23 25.80130 -80.17219 9088 ft 260 kts 211°
2026-05-03 22:23 25.78510 -80.18158 8861 ft 264 kts 210°
2026-05-03 22:24 25.76886 -80.19095 8630 ft 262 kts 210°
2026-05-03 22:24 25.75270 -80.20026 8407 ft 261 kts 210°
2026-05-03 22:24 25.73702 -80.20971 8171 ft 258 kts 217°
2026-05-03 22:24 25.72528 -80.22435 7920 ft 254 kts 241°
2026-05-03 22:25 25.71888 -80.24249 7662 ft 254 kts 255°
2026-05-03 22:25 25.71484 -80.26157 7391 ft 255 kts 257°
2026-05-03 22:25 25.71161 -80.28100 7099 ft 257 kts 263°
2026-05-03 22:25 25.71052 -80.30068 6806 ft 255 kts 266°
2026-05-03 22:26 25.70988 -80.32017 6536 ft 250 kts 266°
2026-05-03 22:26 25.70926 -80.33927 6214 ft 246 kts 266°
2026-05-03 22:26 25.70856 -80.35802 5848 ft 240 kts 266°
2026-05-03 22:26 25.70778 -80.37636 5487 ft 235 kts 266°
2026-05-03 22:27 25.70696 -80.39433 5144 ft 233 kts 266°
2026-05-03 22:27 25.70612 -80.41225 4815 ft 232 kts 266°
2026-05-03 22:27 25.70526 -80.43014 4469 ft 232 kts 266°
2026-05-03 22:27 25.70411 -80.44803 4135 ft 233 kts 263°
2026-05-03 22:28 25.70254 -80.46585 4060 ft 232 kts 264°
2026-05-03 22:28 25.70089 -80.48384 4003 ft 235 kts 262°
2026-05-03 22:28 25.69907 -80.50194 4020 ft 238 kts 263°
2026-05-03 22:28 25.69776 -80.51996 3802 ft 237 kts 272°
2026-05-03 22:29 25.70303 -80.53684 3527 ft 232 kts 304°
2026-05-03 22:29 25.71531 -80.54747 3249 ft 222 kts 337°
2026-05-03 22:29 25.73029 -80.54997 3105 ft 216 kts 360°
2026-05-03 22:29 25.74500 -80.54541 3006 ft 222 kts 32°
2026-05-03 22:30 25.75542 -80.53320 3005 ft 217 kts 53°
2026-05-03 22:30 25.76439 -80.51965 2996 ft 217 kts 52°
2026-05-03 22:30 25.77342 -80.50600 3014 ft 219 kts 54°
2026-05-03 22:30 25.77899 -80.49049 2989 ft 216 kts 86°
2026-05-03 22:31 25.77933 -80.47390 2796 ft 214 kts 87°
2026-05-03 22:31 25.78021 -80.45766 2528 ft 208 kts 86°
2026-05-03 22:31 25.78095 -80.44184 2276 ft 203 kts 87°
2026-05-03 22:31 25.78158 -80.42650 2018 ft 199 kts 87°
2026-05-03 22:32 25.78219 -80.41124 1764 ft 197 kts 87°
2026-05-03 22:32 25.78279 -80.39621 1505 ft 194 kts 87°
2026-05-03 22:32 25.78337 -80.38161 1258 ft 183 kts 87°
2026-05-03 22:32 25.78394 -80.36794 1014 ft 170 kts 87°
2026-05-03 22:33 25.78445 -80.35565 926 ft 151 kts 87°
2026-05-03 22:33 25.78492 -80.34451 668 ft 137 kts 88°
2026-05-03 22:33 25.78530 -80.33435 469 ft 129 kts 86°
2026-05-03 22:33 25.78578 -80.32431 289 ft 130 kts 88°
2026-05-03 22:34 25.78616 -80.31438 72 ft 127 kts 87°
2026-05-03 22:34 25.78654 -80.30506 20 ft 112 kts 88°
2026-05-03 22:34 25.78680 -80.29853 19 ft 61 kts 87°
2026-05-03 22:34 25.78700 -80.29413 19 ft 48 kts 85°
2026-05-03 22:35 25.78789 -80.29172 19 ft 21 kts 51°
2026-05-03 22:35 25.78824 -80.29077 19 ft 13 kts 77°
2026-05-03 22:35 25.78832 -80.28979 20 ft 13 kts 75°
2026-05-03 22:35 25.78872 -80.28887 18 ft 15 kts 39°
2026-05-03 22:36 25.78972 -80.28876 17 ft 15 kts 358°
2026-05-03 22:36 25.79075 -80.28881 15 ft 16 kts 358°
2026-05-03 22:36 25.79200 -80.28884 15 ft 19 kts 360°
2026-05-03 22:36 25.79333 -80.28886 17 ft 19 kts 359°
2026-05-03 22:37 25.79462 -80.28892 19 ft 18 kts 358°
2026-05-03 22:37 25.79585 -80.28897 21 ft 18 kts 356°
2026-05-03 22:37 25.79704 -80.28904 23 ft 17 kts 358°
2026-05-03 22:37 25.79822 -80.28911 25 ft 17 kts 357°
2026-05-03 22:38 25.79928 -80.28907 27 ft 9 kts 354°
2026-05-03 22:38 25.79990 -80.28896 27 ft 11 kts 33°
2026-05-03 22:38 25.79998 -80.28768 27 ft 22 kts 114°
2026-05-03 22:38 25.79946 -80.28591 22 ft 26 kts 90°
2026-05-03 22:39 25.79954 -80.28397 18 ft 24 kts 87°
2026-05-03 22:39 25.79881 -80.28313 18 ft 16 kts 198°
2026-05-03 22:39 25.79828 -80.28318 17 ft 4 kts 176°
2026-05-03 22:39 25.79819 -80.28318 17 ft 0 kts 176°